Wind_Speed
23 22 21 20 19 19 19 19 19 18 18 18 18 17 17 17 17 17 18 19 20 21 21 21 21 20 20 19 18 17 17 16 15 15 15 16 16 17 18 19 19 20 20 20 20 20 21 22 24 25 26 27 28 28 27 26 25 23 22 21 21 19 17 13 11 10 10 11 12
21 21 20 19 19 19 19 19 19 19 19 18 18 18 18 17 18 18 19 19 20 21 21 21 21 21 20 19 19 18 18 17 16 16 16 17 17 18 18 19 19 19 19 20 21 22 23 25 26 27 27 28 27 26 26 24 23 21 19 17 15 13 11 9 9 9 9 10 11
20 20 19 19 19 19 18 19 19 19 19 19 19 18 18 18 18 19 19 20 20 21 21 22 22 21 21 20 19 19 18 18 17 17 17 17 18 18 19 19 19 19 19 20 21 23 25 27 28 28 28 28 27 26 24 23 21 18 15 12 11 10 9 10 10 10 10 11 12
20 19 19 19 19 18 19 19 19 19 19 19 19 19 19 19 19 20 20 20 21 21 21 22 22 21 20 19 19 18 18 18 18 18 18 18 18 18 18 18 19 19 20 21 23 25 27 28 28 28 27 27 25 24 22 19 17 14 11 10 10 10 10 11 11 11 12 13 14
19 19 19 19 19 19 19 19 19 19 19 19 19 20 20 20 20 21 21 21 21 21 22 22 21 20 19 19 18 18 18 18 18 18 18 18 18 18 18 19 19 20 22 23 25 26 27 27 27 26 25 24 23 21 18 16 14 12 11 11 11 11 12 12 13 13 14 15 16
19 19 19 19 19 19 19 19 19 19 19 19 20 20 20 20 21 22 22 23 23 22 22 22 21 21 21 20 20 20 19 19 19 19 19 19 19 19 19 20 21 22 23 24 25 26 26 26 25 24 23 22 20 18 16 14 13 12 12 12 13 13 14 14 15 16 17 18 19
19 19 19 19 19 19 19 19 19 19 19 19 19 20 20 21 22 23 23 24 24 23 23 22 22 22 22 22 21 20 20 19 19 19 19 20 20 20 20 21 22 23 24 24 25 25 25 25 24 22 21 19 17 16 15 14 14 14 14 15 15 16 16 17 18 19 20 20 21
20 20 19 19 19 19 19 19 19 19 19 19 19 20 21 22 23 23 24 24 24 24 23 23 23 22 22 22 21 21 20 20 20 20 21 21 21 21 21 22 23 23 24 25 25 25 25 24 22 20 19 18 17 16 16 16 16 16 17 17 18 19 19 20 20 21 22 23 23
20 20 19 19 19 19 19 19 19 19 19 19 19 20 21 22 23 24 25 25 25 24 24 23 23 22 22 22 22 22 22 21 21 21 21 21 21 21 22 23 23 24 25 25 25 25 24 22 21 20 19 19 18 18 18 19 19 19 19 20 21 21 21 22 22 23 24 24 25
20 20 19 19 19 19 19 19 19 19 19 19 20 21 22 23 24 25 25 26 25 25 24 23 23 23 23 23 23 23 23 22 22 21 21 21 22 22 23 24 24 24 25 25 24 23 22 21 20 20 20 20 20 20 21 21 21 21 21 22 22 22 23 23 23 24 25 25 25
20 20 19 19 19 19 19 19 19 19 19 20 21 22 23 24 25 26 26 26 26 25 25 24 24 24 24 24 24 23 23 22 22 22 22 23 23 24 24 24 25 24 24 24 23 22 21 21 21 21 21 22 22 22 22 22 22 22 22 23 23 23 23 24 24 25 25 25 25
20 20 19 19 19 19 19 18 18 19 19 20 22 23 24 25 26 26 27 27 26 26 25 25 24 24 24 24 24 23 23 22 22 22 23 23 24 24 24 25 25 24 23 23 22 22 21 21 22 22 23 23 23 23 23 23 23 23 23 24 24 24 25 25 25 25 25 25 24
20 20 19 19 18 18 18 18 18 19 20 22 23 24 25 26 26 27 27 27 27 26 26 25 25 24 24 24 24 23 23 22 22 22 22 23 23 24 25 25 24 23 22 22 22 22 22 22 23 23 23 23 23 23 23 23 24 24 24 25 25 25 25 25 25 25 24 24 24
20 19 19 18 18 17 18 18 19 20 22 23 25 26 26 26 26 26 26 27 27 27 26 26 25 25 25 24 23 23 22 21 21 21 21 22 23 24 25 25 24 22 22 22 22 23 23 23 23 24 24 24 24 24 24 24 24 25 25 25 26 26 26 25 25 24 24 24 25
20 19 18 18 17 17 18 18 20 21 23 25 26 27 27 27 26 26 26 26 26 26 26 26 25 25 24 23 23 22 21 20 20 20 20 22 24 25 25 24 22 22 22 23 23 24 24 24 24 24 24 24 24 24 24 24 24 25 25 25 26 26 25 25 24 24 24 25 25
19 19 18 18 18 18 18 20 21 23 25 27 27 28 28 27 26 25 25 25 25 25 25 25 25 24 23 22 22 21 20 20 19 20 22 24 26 26 24 22 22 22 23 24 24 24 24 24 25 24 24 24 24 24 24 24 25 25 25 26 26 25 25 24 24 24 25 26 26
19 18 18 18 18 19 20 22 24 25 27 28 28 29 28 27 26 24 23 23 23 24 24 24 24 23 23 22 21 20 20 20 21 22 24 27 27 26 24 22 22 23 24 24 24 25 25 25 25 25 25 25 25 25 25 25 25 26 26 26 25 25 25 25 25 26 26 27 27
18 18 19 19 20 21 22 24 26 27 28 28 29 29 28 26 24 23 22 21 21 22 22 23 23 22 22 21 20 20 20 20 22 24 26 28 28 26 24 23 23 24 25 25 25 26 26 26 26 26 26 26 26 26 25 25 25 25 25 24 24 25 25 26 26 27 27 27 27
18 19 20 21 22 23 24 26 27 28 28 28 28 28 26 24 22 20 20 19 18 19 20 22 22 22 21 20 20 20 21 22 24 26 27 28 27 26 24 24 24 25 26 26 27 27 27 27 27 27 26 26 26 25 25 25 24 24 24 24 25 26 26 27 27 27 27 26 26
19 20 21 22 23 25 26 27 27 28 28 28 27 26 24 22 20 18 17 17 16 17 19 20 21 21 21 21 21 21 22 24 25 27 28 28 27 26 25 25 26 26 27 27 28 28 28 27 26 26 25 25 24 24 24 24 24 24 25 26 26 27 28 28 27 27 26 25 25
21 22 22 23 24 26 26 27 27 27 27 27 26 24 23 21 19 17 16 15 15 16 18 19 20 20 20 21 22 23 24 26 27 28 28 28 27 26 26 26 26 27 27 27 27 27 26 25 24 24 23 23 23 23 23 24 24 25 27 27 28 28 28 28 27 26 25 25 24
22 22 23 24 25 26 27 27 27 27 27 26 25 24 22 21 19 17 16 14 14 15 16 18 19 20 20 21 23 24 25 26 27 27 27 27 26 26 26 26 26 26 26 25 25 25 24 23 23 22 22 22 22 23 24 25 27 28 29 29 29 29 28 27 26 25 25 25 25
22 22 23 24 25 26 27 27 28 28 27 27 26 24 22 21 19 17 16 14 14 15 16 17 19 20 21 22 23 24 25 25 25 25 25 25 25 25 24 24 24 24 24 24 23 23 23 22 22 22 23 23 25 26 27 28 29 30 30 29 29 28 27 26 25 25 25 25 26
22 22 23 23 24 25 26 27 28 28 28 27 26 24 22 21 19 17 16 15 15 16 17 19 20 21 22 22 23 23 23 23 23 23 23 23 23 22 22 22 22 22 22 22 22 22 22 23 23 24 26 27 28 29 30 30 30 29 28 27 26 25 25 25 25 26 26 27 27
22 22 22 22 23 24 25 26 27 27 27 27 25 24 22 20 18 17 16 16 17 18 19 20 20 21 21 22 22 22 22 22 22 22 21 21 21 21 21 21 21 21 21 22 22 23 24 25 26 28 29 29 30 30 29 28 27 26 25 24 24 25 25 26 27 27 28 28 29
21 21 22 22 23 24 24 25 26 26 26 26 24 22 20 19 18 17 17 18 18 19 19 20 20 20 21 21 21 21 22 22 22 21 21 20 20 20 21 21 22 22 23 24 25 26 27 28 29 29 29 29 28 27 26 24 24 23 23 24 25 26 26 27 28 29 30 30 31
20 21 21 22 23 24 24 25 25 25 25 24 22 21 19 19 18 18 18 18 18 19 19 19 19 20 20 21 21 22 22 22 22 22 22 22 22 22 23 23 24 25 26 27 27 28 28 28 28 27 26 25 25 24 23 23 23 24 25 25 26 27 28 29 30 31 31 32 33
20 21 22 23 24 24 24 25 25 24 24 22 21 20 19 19 19 19 19 19 19 19 19 20 20 20 21 21 22 22 23 23 23 23 23 23 23 24 24 25 26 26 26 26 26 26 26 25 25 24 24 23 23 23 24 24 25 25 26 27 28 28 29 30 31 32 33 33 34
21 22 23 24 24 24 24 24 24 23 23 22 21 20 20 20 20 20 20 20 20 20 20 20 20 20 21 21 22 22 22 21 21 21 22 22 23 24 24 24 25 25 25 25 24 24 24 23 23 23 23 23 24 25 25 26 26 27 28 28 29 30 31 31 32 33 33 34 34
22 23 23 23 23 23 24 24 23 23 23 22 22 21 21 21 21 21 21 21 20 20 20 20 20 20 20 20 20 20 19 19 20 20 21 22 23 23 24 24 24 24 23 23 23 23 23 23 23 23 24 24 25 26 26 27 27 28 29 30 30 31 32 32 33 33 34 34 34
22 22 22 22 23 23 23 24 24 24 23 23 22 22 22 22 21 20 20 19 19 19 19 18 18 18 17 17 17 17 18 19 20 21 22 22 23 23 23 23 23 22 22 22 22 23 23 23 24 24 25 25 26 26 27 28 28 29 30 30 31 31 32 33 33 33 33 33 33
22 22 22 22 23 23 24 24 24 24 24 23 23 22 21 19 18 17 16 16 16 16 15 15 15 15 15 15 16 17 18 20 21 22 22 22 22 22 22 22 22 22 22 23 23 23 24 24 25 25 25 26 26 27 28 28 29 30 30 31 31 32 32 33 33 33 33 32 32
22 22 22 22 23 24 25 25 24 24 23 22 21 20 18 16 15 14 13 13 13 13 12 13 13 14 15 16 17 19 20 21 21 21 21 21 21 21 21 21 22 22 23 23 24 24 24 24 25 25 25 26 26 27 28 29 29 30 31 31 32 32 33 33 33 33 32 31 30
22 22 23 23 24 24 24 24 23 22 21 20 18 17 15 14 13 12 11 11 11 11 12 13 14 15 17 18 19 20 20 20 20 20 20 20 20 21 21 22 23 23 23 23 24 24 24 24 24 25 25 26 27 28 28 29 30 31 31 32 32 32 32 32 32 32 31 30 29
22 22 23 24 24 24 23 21 20 19 17 16 15 14 13 12 11 11 11 11 12 13 14 16 17 18 19 20 20 20 19 19 19 19 20 20 21 22 22 23 23 23 23 23 23 23 23 24 24 25 26 26 27 28 29 30 30 31 31 32 32 32 32 32 31 30 29 28 27
22 22 23 23 22 21 19 18 16 15 14 13 12 12 11 11 11 11 12 14 15 17 18 19 19 19 19 19 19 18 18 19 19 20 21 22 22 22 22 22 22 22 22 22 23 23 23 24 25 25 26 27 28 29 29 30 31 31 31 32 32 31 31 30 30 29 28 27 26
22 22 22 21 20 18 16 15 14 12 12 11 11 11 11 12 13 14 16 17 18 19 19 19 19 18 18 18 18 18 19 19 20 21 22 22 22 22 22 21 21 21 22 22 22 23 24 24 25 26 26 27 28 29 29 30 31 31 31 30 30 29 29 28 28 27 27 27 26
21 21 21 20 18 16 14 13 12 11 11 11 11 12 13 15 17 18 19 20 20 19 19 18 18 17 17 18 18 19 20 21 21 21 22 22 21 21 21 21 21 21 21 22 23 23 24 25 25 26 26 27 28 28 29 29 29 29 29 29 28 27 26 26 26 26 26 26 26
21 21 20 18 16 14 13 12 11 11 12 13 15 16 18 19 20 20 20 20 19 18 18 17 17 17 18 18 19 20 20 21 21 21 21 20 20 20 20 21 21 21 22 22 23 24 24 25 25 26 27 27 27 27 27 27 27 27 27 26 25 25 25 25 25 25 25 26 26
21 19 17 14 13 12 12 12 13 14 16 17 19 20 21 21 21 21 20 19 18 17 17 17 17 18 19 19 19 20 20 20 20 20 20 20 20 20 21 21 21 22 22 23 23 24 24 25 25 26 27 27 26 26 25 25 25 25 24 23 22 23 24 24 25 25 25 25 25
16 14 13 12 12 12 13 15 17 19 20 21 22 22 22 22 21 20 19 17 17 16 17 17 18 18 19 19 19 19 19 19 19 19 19 20 20 20 21 21 22 22 22 23 23 24 24 25 26 26 26 26 25 24 23 22 22 22 22 22 22 23 24 25 25 25 25 25 24
Wind_Direction
299 299 299 300 301 304 307 310 314 317 318 318 317 315 314 312 311 311 311 310 310 309 307 305 302 300 298 296 293 291 287 282 277 271 265 257 251 247 243 241 240 240 243 246 252 257 262 266 270 274 277 281 285 288 290 291 290 290 290 292 294 295 295 292 290 289 288 286 285
298 298 299 300 302 306 309 313 316 318 318 317 316 315 313 311 310 310 310 310 310 308 306 303 300 297 295 292 289 286 282 276 271 266 261 255 251 247 244 242 243 246 249 254 260 266 271 275 278 281 285 288 291 294 295 294 293 292 292 292 293 294 292 290 289 288 287 286 285
298 298 299 301 304 307 311 314 317 318 317 316 315 314 313 311 309 309 309 309 309 308 305 302 298 295 292 289 286 282 279 274 268 262 257 254 250 248 245 246 248 252 258 265 272 279 283 286 288 289 291 293 295 296 296 294 292 290 288 286 284 282 279 278 278 278 278 277 277
298 299 300 302 305 308 311 314 317 317 316 315 315 314 312 310 308 308 308 308 308 307 304 300 296 292 287 283 280 278 276 272 266 260 256 255 253 251 250 252 258 265 273 281 287 291 294 295 295 295 295 296 296 296 295 291 288 284 279 275 271 270 270 271 272 273 273 274 275
298 299 300 302 304 308 311 314 316 316 315 314 313 312 311 309 308 307 307 307 307 306 303 299 293 287 281 277 274 273 272 269 265 260 257 255 255 257 261 266 274 282 289 294 297 298 299 298 297 296 296 296 296 293 290 287 281 275 271 270 269 270 272 274 275 276 278 280 282
298 298 299 301 304 308 311 313 314 314 312 312 311 310 309 308 307 306 306 306 306 304 301 297 291 285 280 276 273 271 269 266 263 260 259 259 263 268 275 282 288 293 297 299 300 300 300 298 297 296 295 295 293 290 287 282 275 271 271 273 274 275 277 279 281 282 284 286 288
297 297 299 301 304 307 309 311 311 311 311 310 310 309 308 307 306 305 304 304 304 302 298 294 290 285 281 277 273 270 267 265 264 264 265 268 273 279 285 290 294 297 299 300 300 299 298 297 296 294 293 291 288 285 281 277 273 272 273 276 277 279 281 283 284 286 287 289 290
296 297 299 301 303 305 307 308 309 310 310 310 310 309 309 308 306 304 302 301 299 297 295 291 287 283 279 275 272 270 268 267 267 269 272 276 280 285 289 292 296 298 299 299 298 297 296 295 294 293 290 286 281 278 276 274 273 274 275 277 279 280 282 284 286 287 289 290 291
296 297 298 300 302 303 305 307 308 309 309 310 311 310 309 308 306 303 300 298 296 294 291 287 283 279 276 273 271 270 269 270 271 274 276 280 283 287 291 294 297 298 298 297 295 294 292 292 293 291 287 283 278 275 274 274 274 275 276 278 279 281 282 284 287 289 291 292 293
294 295 297 298 300 302 303 305 307 308 310 311 312 312 310 308 306 302 299 296 294 291 288 285 281 277 274 271 270 270 271 272 274 276 279 282 284 288 292 296 298 299 297 294 292 289 289 289 289 287 284 280 277 275 275 275 276 277 278 279 280 282 284 287 289 291 293 294 294
292 293 294 296 298 300 302 304 306 308 311 312 313 313 311 309 306 303 299 295 291 288 286 283 280 276 273 271 270 271 273 274 276 278 280 282 285 289 294 297 298 297 294 290 287 285 285 285 285 283 280 278 277 276 276 277 277 278 279 280 282 284 287 290 292 293 294 295 295
289 290 292 294 296 298 301 303 306 309 312 314 314 314 312 310 307 303 298 294 289 286 284 281 278 275 272 271 271 273 274 276 277 278 280 283 287 291 295 297 297 294 290 286 282 282 282 283 282 280 278 277 276 276 276 277 278 279 280 282 284 286 289 291 293 294 295 295 296
286 288 290 292 295 298 300 304 307 311 313 315 315 315 313 311 307 302 297 292 289 286 283 280 277 274 272 272 272 273 275 276 277 279 281 285 290 294 297 297 296 291 286 281 279 280 281 281 280 278 276 275 274 274 275 276 277 279 281 283 285 287 289 291 292 293 294 295 296
285 287 289 291 294 297 301 305 309 312 314 316 316 315 313 310 306 301 296 291 287 284 282 279 276 273 272 272 273 274 275 276 277 280 284 289 293 297 298 298 294 288 281 278 277 278 279 280 278 276 274 273 273 273 274 276 277 279 281 283 285 286 288 289 291 292 294 295 297
284 287 289 291 294 298 303 307 311 314 315 316 316 315 313 310 305 299 294 289 285 282 279 277 274 273 272 272 273 274 275 275 277 281 287 292 297 299 299 297 291 283 278 276 276 278 279 279 277 275 273 272 272 273 274 276 277 279 281 282 284 286 287 289 291 293 295 297 298
285 288 291 294 298 302 306 310 313 315 317 317 317 316 314 310 305 299 292 287 283 279 276 274 273 272 271 272 272 273 274 275 278 283 289 295 298 299 298 293 285 278 275 274 276 277 278 278 277 275 273 272 272 273 274 276 278 279 281 283 285 286 288 291 293 295 297 298 299
287 291 295 299 303 307 310 313 315 317 318 319 318 317 315 311 305 298 292 286 281 277 274 272 271 270 270 271 271 272 273 276 281 286 291 295 297 298 294 287 279 274 273 274 275 277 277 277 276 275 273 272 273 273 275 277 279 281 283 285 287 289 291 294 296 298 299 300 300
293 297 301 305 308 311 313 315 317 319 320 320 320 318 316 311 305 298 291 285 280 275 272 269 268 267 267 268 269 270 272 276 281 286 291 294 295 294 289 281 276 273 273 274 275 276 276 275 275 274 273 273 274 276 278 280 282 284 286 288 290 293 295 297 298 299 300 300 300
301 305 307 309 311 313 315 317 319 320 321 321 320 319 316 311 305 298 292 286 279 273 268 265 265 265 266 267 268 270 273 277 282 287 290 292 292 290 285 280 276 275 275 275 276 275 275 274 274 274 274 276 278 280 282 284 286 288 290 292 294 296 298 299 300 301 301 301 300
307 309 310 312 313 315 317 319 321 322 322 322 321 319 316 311 305 298 292 287 279 270 265 262 263 265 267 268 270 273 276 280 284 287 289 290 290 287 284 281 278 278 277 277 276 275 274 274 274 275 276 278 281 283 286 288 289 292 294 295 297 299 300 301 302 302 301 301 299
309 310 311 313 315 318 319 321 322 323 324 323 322 319 316 311 306 300 294 288 280 272 266 264 266 268 270 272 275 277 280 283 286 288 289 289 288 286 284 282 280 279 278 276 275 274 273 274 275 276 278 281 283 286 288 290 292 294 295 297 299 300 301 302 302 302 300 299 298
308 310 312 315 318 320 322 323 324 325 325 324 322 319 316 312 307 302 297 290 282 274 270 269 270 272 275 277 279 281 283 285 287 288 289 288 287 285 284 282 280 278 275 273 272 271 271 272 274 276 279 282 285 287 290 292 294 295 297 298 300 301 302 302 301 300 298 297 296
307 310 314 318 320 322 323 324 325 325 325 324 322 319 316 312 308 304 298 291 282 276 273 273 275 277 278 280 282 283 284 285 286 287 287 286 285 283 280 278 275 272 270 269 269 269 270 272 275 278 281 285 288 290 292 294 296 298 299 301 301 302 301 300 299 298 297 297 296
309 312 316 319 321 322 323 323 324 323 323 322 320 317 315 311 307 303 296 288 282 277 276 276 277 278 279 281 282 283 284 284 285 285 284 283 280 278 275 272 270 267 267 268 269 271 274 278 281 284 287 289 292 294 296 299 301 302 303 303 302 301 300 299 298 298 298 298 297
311 314 316 318 319 320 321 321 321 321 320 318 316 314 311 308 304 298 292 286 281 278 277 277 277 278 279 280 280 281 282 282 282 282 281 278 275 272 270 268 267 268 269 272 275 279 283 286 289 292 294 296 298 300 302 304 305 305 304 302 301 300 300 300 300 300 300 300 299
311 313 314 314 315 316 317 318 318 318 316 314 312 310 306 303 298 293 288 284 281 279 278 278 277 278 278 279 280 281 281 281 281 281 279 277 274 272 271 271 273 275 278 281 285 288 291 294 296 299 301 304 306 307 308 308 306 304 303 302 301 301 302 302 302 302 302 302 301
309 309 309 310 311 313 315 317 316 314 312 309 306 304 300 297 293 289 286 283 282 280 279 278 278 278 279 280 281 282 283 284 284 284 283 283 282 282 282 283 285 287 289 291 294 296 299 301 304 307 309 310 310 310 308 306 305 304 303 303 303 303 304 304 304 304 303 303 302
305 305 306 308 311 314 315 315 313 310 307 304 301 298 295 292 289 286 284 283 282 281 280 280 280 281 282 284 285 287 289 290 291 291 292 293 294 295 296 297 298 299 301 302 304 306 308 310 311 312 312 311 309 308 306 305 305 305 305 305 305 305 305 305 305 304 304 303 302
302 303 305 309 312 314 314 312 308 304 301 298 296 293 290 288 285 284 283 282 282 282 282 283 284 286 288 290 292 294 296 298 300 302 303 304 306 307 307 308 308 309 310 310 311 312 313 313 313 312 310 309 307 306 306 306 306 306 306 306 306 306 306 305 304 304 303 303 302
302 303 306 310 312 312 310 306 302 299 296 294 291 289 287 285 283 282 281 281 282 283 284 287 290 293 296 298 301 303 306 308 310 311 312 312 312 313 313 312 313 313 313 313 313 313 313 312 311 310 308 307 307 306 306 306 306 306 306 306 306 305 305 304 304 303 303 303 303
302 303 306 308 309 307 304 301 298 295 292 290 288 286 284 284 283 283 283 283 284 286 288 292 296 299 303 306 308 311 313 314 315 315 315 315 315 315 314 314 314 313 313 313 312 311 310 310 309 308 308 307 307 306 306 306 306 306 305 305 305 305 304 304 304 304 304 304 304
301 302 304 305 305 303 301 298 295 292 289 287 285 284 283 283 283 284 285 287 290 293 297 301 304 306 309 311 313 314 315 317 318 318 318 317 316 315 314 314 313 312 311 310 310 309 309 309 308 308 307 306 306 306 306 306 305 305 305 305 305 305 305 305 305 304 304 304 304
299 301 303 304 304 302 299 296 292 290 287 285 283 282 281 282 285 288 292 296 300 304 308 311 312 313 314 316 317 319 320 321 321 320 318 316 314 313 312 311 310 310 309 309 309 309 308 308 307 307 306 306 306 306 306 306 306 306 306 306 306 306 306 306 305 305 305 305 305
299 302 304 305 304 301 298 294 291 289 286 284 282 281 281 284 289 296 302 307 311 314 316 318 319 321 322 324 325 325 325 323 320 317 314 312 311 311 311 311 310 309 309 309 308 308 307 307 307 307 307 307 307 307 307 307 307 307 307 307 308 307 307 306 305 305 305 305 305
300 304 306 306 303 300 297 294 291 288 285 282 282 282 284 288 294 301 308 314 319 323 326 328 330 331 331 331 330 327 323 319 315 312 311 310 310 311 311 311 311 310 309 309 308 308 308 308 308 308 309 309 308 308 308 308 308 308 309 309 308 308 307 306 305 305 305 305 305
304 307 307 305 301 298 295 292 289 286 283 282 284 287 292 298 305 312 319 326 330 334 336 337 337 336 334 330 326 321 316 313 311 311 311 311 312 313 312 312 311 310 309 308 308 309 309 310 310 310 310 310 310 310 310 310 310 310 309 309 308 307 307 306 306 305 305 305 304
307 309 306 302 298 294 291 288 286 285 285 289 295 303 313 322 329 334 337 340 341 342 341 340 337 332 327 322 318 314 312 311 311 312 313 314 314 314 313 312 311 310 309 309 310 310 311 311 312 312 312 312 312 312 312 312 311 310 310 309 308 308 307 306 306 305 305 304 304
310 308 303 298 294 291 290 289 290 293 301 312 324 333 339 343 345 347 347 347 346 343 340 335 330 325 320 316 314 312 312 313 314 315 316 316 316 315 314 313 312 311 311 311 311 312 312 313 313 313 313 314 314 314 313 312 311 310 309 309 309 309 308 307 306 305 305 305 305
308 304 299 295 293 293 295 300 307 317 328 338 345 349 351 351 351 351 350 348 345 340 334 328 323 319 316 314 314 315 316 317 318 318 319 318 317 316 315 314 313 313 313 313 313 313 314 314 314 314 315 316 316 316 315 313 311 310 310 310 310 309 308 306 305 305 304 304 306
305 301 298 298 300 305 312 322 333 341 346 349 352 354 354 353 352 351 349 345 340 334 328 323 319 317 316 317 318 319 320 321 321 321 321 320 319 317 316 316 315 315 315 315 315 315 315 315 316 316 317 318 318 318 316 314 312 311 310 309 308 306 305 305 304 304 304 305 308
305 304 307 313 321 329 337 344 348 351 353 354 355 355 354 353 351 349 345 340 333 328 324 321 320 320 321 322 323 324 324 324 324 323 322 321 319 318 317 317 316 316 316 316 316 316 316 317 318 319 320 321 321 319 317 314 312 310 307 305 305 304 304 305 305 305 307 309 311
Height
1518 1517 1517 1516 1515 1515 1514 1513 1512 1512 1511 1511 1510 1510 1509 1508 1507 1507 1506 1505 1504 1503 1502 1501 1501 1500 1499 1498 1498 1497 1497 1496 1496 1495 1495 1495 1494 1494 1494 1494 1494 1494 1494 1494 1494 1494 1493 1493 1493 1493 1492 1492 1491 1490 1490 1489 1488 1487 1487 1486 1485 1485 1485 1485 1485 1485 1485 1485 1485
1516 1516 1515 1514 1514 1513 1512 1512 1511 1510 1510 1509 1509 1508 1507 1507 1506 1505 1504 1504 1503 1502 1501 1500 1499 1498 1498 1497 1497 1496 1496 1495 1495 1494 1494 1494 1493 1493 1493 1493 1493 1493 1493 1493 1493 1493 1492 1492 1492 1492 1491 1490 1490 1489 1488 1487 1487 1486 1485 1484 1484 1484 1483 1483 1483 1483 1483 1483 1483
1515 1514 1513 1513 1512 1512 1511 1510 1510 1509 1508 1508 1507 1507 1506 1505 1505 1504 1503 1502 1502 1501 1500 1499 1498 1497 1496 1496 1495 1494 1494 1494 1493 1493 1493 1493 1492 1492 1492 1492 1492 1492 1492 1492 1492 1492 1491 1491 1490 1490 1489 1488 1488 1487 1486 1485 1485 1484 1483 1483 1483 1482 1482 1482 1482 1482 1482 1482 1482
1513 1513 1512 1512 1511 1510 1509 1509 1508 1507 1507 1507 1506 1505 1505 1504 1503 1502 1502 1501 1500 1499 1498 1497 1496 1496 1495 1494 1493 1493 1492 1492 1492 1492 1492 1492 1492 1492 1492 1491 1491 1491 1491 1491 1490 1490 1489 1489 1488 1487 1487 1487 1486 1485 1485 1484 1483 1482 1482 1482 1482 1482 1482 1481 1481 1481 1481 1481 1481
1512 1511 1511 1510 1509 1509 1508 1507 1507 1506 1505 1505 1504 1504 1503 1502 1502 1501 1500 1499 1499 1498 1497 1496 1495 1494 1493 1493 1492 1492 1491 1491 1491 1491 1491 1491 1491 1491 1491 1490 1490 1490 1489 1488 1488 1487 1487 1486 1486 1485 1485 1485 1484 1483 1483 1482 1482 1481 1481 1481 1481 1481 1481 1480 1480 1480 1480 1479 1479
1510 1510 1509 1508 1508 1507 1506 1506 1505 1504 1504 1503 1502 1502 1501 1501 1500 1499 1498 1498 1497 1496 1495 1495 1494 1493 1492 1492 1491 1491 1490 1490 1490 1490 1490 1490 1490 1490 1489 1489 1488 1487 1487 1486 1486 1485 1485 1484 1484 1483 1483 1483 1482 1482 1481 1481 1481 1480 1480 1480 1480 1480 1479 1479 1479 1478 1478 1478 1477
1509 1508 1507 1507 1506 1505 1504 1504 1503 1502 1502 1501 1501 1500 1500 1499 1498 1497 1497 1496 1495 1494 1494 1493 1492 1492 1491 1491 1490 1490 1489 1489 1489 1489 1489 1489 1488 1488 1487 1487 1486 1486 1485 1484 1484 1483 1483 1482 1482 1482 1481 1481 1481 1480 1480 1480 1479 1479 1479 1479 1478 1478 1478 1477 1477 1477 1477 1476 1476
1507 1506 1506 1505 1504 1503 1503 1502 1501 1501 1500 1500 1499 1498 1498 1497 1497 1496 1495 1494 1493 1492 1492 1491 1491 1490 1490 1489 1489 1488 1488 1488 1488 1488 1488 1487 1487 1486 1486 1485 1484 1484 1483 1482 1482 1482 1481 1481 1481 1480 1480 1480 1480 1479 1479 1479 1478 1478 1478 1477 1477 1477 1477 1476 1476 1475 1475 1475 1474
1505 1505 1504 1503 1502 1502 1501 1500 1500 1499 1498 1498 1497 1497 1496 1496 1495 1494 1493 1492 1491 1491 1490 1490 1489 1489 1488 1488 1487 1487 1487 1486 1486 1486 1486 1486 1485 1485 1484 1483 1483 1482 1482 1481 1481 1480 1480 1479 1479 1479 1479 1478 1478 1478 1477 1477 1477 1477 1476 1476 1476 1475 1475 1475 1474 1474 1473 1473 1472
1503 1503 1502 1502 1501 1500 1499 1498 1498 1497 1497 1496 1496 1495 1494 1494 1493 1492 1491 1490 1490 1489 1488 1488 1487 1487 1487 1486 1486 1486 1485 1485 1485 1484 1484 1484 1484 1483 1482 1482 1481 1481 1480 1479 1479 1479 1478 1478 1477 1477 1477 1477 1477 1476 1476 1476 1475 1475 1474 1474 1474 1474 1473 1473 1472 1472 1472 1471 1470
1502 1501 1500 1500 1499 1498 1497 1497 1496 1495 1495 1494 1494 1493 1493 1492 1491 1490 1489 1488 1488 1487 1487 1486 1486 1485 1485 1485 1484 1484 1483 1483 1483 1483 1482 1482 1482 1482 1481 1481 1480 1479 1479 1478 1477 1477 1477 1476 1476 1476 1476 1475 1475 1475 1474 1474 1473 1473 1473 1472 1472 1472 1472 1471 1471 1470 1469 1469 1468
1499 1498 1498 1497 1497 1496 1496 1495 1494 1494 1493 1492 1492 1492 1491 1490 1489 1488 1487 1486 1486 1485 1485 1484 1484 1483 1483 1483 1482 1482 1482 1482 1481 1481 1481 1480 1480 1480 1479 1479 1478 1478 1477 1477 1476 1476 1475 1475 1474 1474 1474 1473 1473 1473 1472 1472 1471 1471 1471 1471 1470 1470 1470 1469 1469 1468 1467 1467 1466
1497 1496 1496 1495 1495 1494 1493 1493 1492 1492 1491 1491 1490 1490 1489 1488 1487 1486 1485 1484 1483 1483 1483 1482 1482 1482 1482 1481 1481 1481 1480 1480 1480 1479 1479 1479 1478 1478 1478 1477 1477 1476 1476 1475 1474 1474 1473 1473 1472 1472 1472 1472 1471 1471 1470 1470 1469 1469 1469 1468 1468 1468 1467 1467 1467 1466 1465 1465 1464
1495 1494 1493 1493 1492 1492 1492 1491 1491 1490 1490 1489 1488 1488 1487 1486 1485 1484 1483 1482 1482 1481 1481 1481 1480 1480 1480 1479 1479 1479 1478 1478 1478 1477 1477 1477 1477 1476 1476 1475 1475 1474 1474 1473 1473 1472 1472 1471 1471 1470 1470 1470 1469 1469 1468 1468 1467 1467 1467 1467 1466 1466 1465 1465 1464 1464 1463 1462 1462
1493 1492 1492 1491 1491 1490 1490 1489 1489 1488 1488 1487 1486 1486 1485 1484 1483 1482 1481 1480 1479 1479 1479 1479 1478 1478 1478 1478 1477 1477 1477 1476 1476 1476 1475 1475 1474 1474 1473 1473 1473 1472 1472 1472 1471 1470 1470 1469 1469 1468 1468 1468 1467 1467 1466 1466 1465 1465 1464 1464 1464 1463 1463 1462 1462 1462 1461 1460 1460
1492 1491 1491 1490 1489 1489 1488 1487 1487 1486 1486 1485 1484 1483 1482 1481 1480 1479 1478 1477 1477 1477 1477 1477 1477 1476 1476 1476 1476 1475 1475 1474 1474 1473 1473 1473 1472 1472 1472 1471 1471 1471 1470 1470 1469 1468 1468 1467 1467 1467 1466 1466 1465 1465 1464 1463 1463 1462 1462 1462 1462 1461 1461 1460 1460 1459 1459 1458 1458
1491 1490 1490 1489 1488 1488 1487 1486 1486 1485 1483 1482 1482 1480 1479 1478 1477 1476 1475 1475 1475 1474 1474 1475 1475 1475 1474 1474 1473 1473 1473 1472 1472 1472 1471 1471 1470 1470 1469 1469 1469 1468 1468 1467 1467 1467 1466 1466 1465 1465 1464 1464 1463 1462 1462 1461 1461 1461 1460 1460 1459 1459 1459 1458 1458 1457 1457 1456 1455
1490 1490 1489 1488 1488 1487 1486 1485 1484 1483 1482 1480 1479 1478 1477 1476 1475 1473 1473 1472 1472 1472 1472 1473 1473 1473 1472 1472 1472 1471 1471 1470 1470 1469 1469 1469 1468 1467 1467 1467 1467 1466 1466 1466 1465 1465 1464 1464 1463 1463 1462 1462 1461 1461 1460 1459 1459 1459 1458 1458 1457 1457 1457 1456 1455 1455 1454 1453 1453
1490 1489 1488 1488 1487 1486 1485 1484 1482 1481 1480 1478 1477 1476 1474 1473 1472 1472 1471 1470 1470 1471 1471 1471 1471 1471 1471 1470 1470 1469 1469 1468 1468 1467 1467 1467 1466 1466 1465 1465 1464 1464 1464 1464 1463 1463 1462 1462 1462 1461 1461 1460 1459 1459 1458 1457 1457 1457 1456 1456 1455 1455 1454 1453 1453 1452 1452 1451 1450
1489 1488 1487 1487 1486 1485 1484 1482 1481 1479 1478 1476 1475 1474 1472 1472 1471 1470 1469 1468 1468 1469 1469 1469 1469 1469 1469 1468 1468 1468 1467 1467 1467 1466 1465 1465 1464 1463 1463 1463 1462 1462 1462 1462 1461 1461 1461 1460 1460 1459 1459 1458 1457 1457 1456 1456 1455 1454 1454 1453 1453 1452 1452 1451 1450 1450 1449 1448 1448
1487 1487 1486 1485 1484 1483 1482 1481 1479 1477 1476 1475 1473 1472 1471 1470 1469 1468 1467 1467 1467 1467 1467 1468 1468 1468 1467 1467 1467 1466 1466 1466 1465 1464 1463 1463 1462 1462 1461 1461 1461 1460 1460 1460 1459 1459 1459 1458 1458 1457 1457 1456 1455 1455 1454 1453 1453 1452 1452 1451 1450 1450 1449 1449 1448 1447 1447 1446 1446
1486 1485 1484 1483 1482 1482 1480 1479 1477 1476 1475 1473 1472 1471 1470 1468 1467 1467 1466 1466 1466 1466 1466 1467 1467 1466 1466 1466 1465 1465 1464 1464 1463 1462 1462 1461 1461 1460 1460 1459 1459 1458 1458 1458 1457 1457 1457 1456 1456 1455 1454 1454 1453 1452 1452 1451 1450 1450 1449 1448 1448 1447 1447 1446 1446 1445 1445 1444 1443
1484 1483 1482 1482 1481 1480 1478 1477 1476 1475 1474 1472 1471 1470 1468 1467 1467 1466 1465 1465 1465 1465 1465 1465 1465 1465 1465 1464 1464 1463 1463 1462 1462 1461 1461 1460 1459 1459 1458 1457 1457 1456 1456 1456 1455 1455 1455 1454 1453 1453 1452 1452 1451 1450 1449 1449 1448 1447 1447 1446 1446 1445 1445 1444 1444 1443 1442 1442 1441
1482 1481 1480 1479 1479 1478 1477 1476 1475 1474 1472 1471 1470 1468 1467 1466 1465 1465 1464 1464 1464 1464 1463 1463 1463 1463 1463 1462 1462 1462 1461 1460 1460 1459 1459 1458 1458 1457 1456 1456 1455 1455 1454 1454 1453 1453 1452 1452 1451 1451 1450 1449 1448 1448 1447 1446 1446 1445 1444 1444 1444 1443 1442 1442 1441 1441 1440 1439 1438
1480 1479 1478 1477 1477 1476 1475 1474 1473 1472 1471 1470 1468 1467 1466 1465 1464 1463 1463 1463 1462 1462 1462 1462 1461 1461 1461 1460 1460 1459 1459 1458 1458 1457 1457 1457 1456 1456 1455 1454 1453 1453 1452 1452 1452 1451 1451 1450 1449 1449 1448 1447 1446 1446 1445 1444 1444 1443 1442 1442 1442 1441 1440 1439 1439 1438 1437 1437 1436
1478 1477 1476 1475 1474 1473 1472 1472 1471 1470 1469 1468 1467 1465 1464 1463 1463 1462 1462 1461 1461 1460 1460 1459 1459 1459 1458 1458 1457 1457 1457 1457 1456 1456 1455 1455 1454 1454 1453 1453 1452 1452 1451 1451 1450 1450 1449 1448 1447 1447 1446 1445 1444 1444 1443 1442 1442 1441 1440 1440 1439 1438 1438 1437 1436 1435 1435 1434 1433
1476 1475 1474 1473 1472 1471 1470 1469 1468 1467 1467 1466 1465 1464 1463 1462 1462 1461 1461 1460 1459 1459 1458 1458 1457 1457 1456 1456 1456 1455 1455 1455 1454 1454 1454 1454 1453 1453 1452 1452 1451 1450 1450 1449 1448 1448 1447 1446 1445 1445 1444 1443 1442 1442 1441 1440 1440 1439 1438 1437 1437 1436 1435 1434 1433 1432 1432 1431 1430
1474 1473 1472 1471 1470 1469 1468 1467 1467 1466 1465 1464 1463 1462 1462 1461 1460 1460 1459 1458 1458 1457 1457 1456 1455 1455 1454 1454 1454 1453 1453 1453 1453 1452 1452 1452 1452 1451 1451 1450 1449 1448 1448 1447 1446 1446 1445 1444 1443 1443 1442 1441 1440 1440 1439 1438 1437 1437 1436 1435 1434 1434 1433 1432 1431 1430 1429 1428 1427
1472 1471 1470 1469 1468 1467 1467 1466 1465 1464 1463 1463 1462 1461 1460 1459 1459 1458 1457 1457 1456 1455 1455 1454 1453 1453 1453 1452 1452 1452 1452 1451 1451 1451 1451 1451 1450 1450 1449 1448 1447 1447 1446 1445 1444 1443 1443 1442 1442 1441 1440 1439 1438 1438 1437 1436 1436 1435 1434 1433 1432 1432 1431 1429 1428 1427 1426 1425 1424
1471 1469 1468 1467 1467 1466 1465 1464 1464 1463 1462 1461 1460 1460 1459 1458 1457 1457 1456 1455 1454 1453 1453 1452 1452 1451 1451 1451 1450 1450 1450 1450 1449 1449 1449 1449 1448 1447 1447 1446 1445 1444 1444 1443 1442 1442 1441 1441 1440 1439 1438 1437 1437 1436 1435 1434 1433 1433 1432 1431 1430 1429 1428 1427 1426 1425 1424 1422 1421
1469 1468 1467 1466 1465 1464 1464 1463 1462 1461 1460 1460 1459 1458 1457 1457 1456 1455 1454 1453 1452 1451 1451 1450 1450 1450 1449 1449 1448 1448 1448 1448 1447 1447 1447 1447 1446 1445 1445 1444 1443 1442 1442 1441 1441 1440 1439 1439 1438 1437 1437 1436 1435 1434 1433 1432 1432 1431 1430 1429 1428 1427 1426 1425 1423 1422 1421 1420 1418
1467 1467 1465 1464 1463 1463 1462 1461 1460 1459 1458 1457 1457 1456 1456 1455 1454 1453 1452 1451 1450 1450 1449 1449 1448 1448 1447 1447 1447 1447 1447 1446 1446 1445 1445 1445 1444 1443 1443 1442 1442 1441 1440 1440 1439 1438 1438 1437 1436 1435 1435 1434 1433 1432 1431 1430 1429 1428 1427 1426 1425 1424 1423 1422 1421 1419 1418 1417 1416
1466 1465 1464 1463 1462 1461 1460 1459 1458 1457 1456 1455 1455 1454 1454 1453 1452 1452 1451 1450 1449 1448 1448 1447 1447 1447 1446 1446 1446 1445 1445 1445 1444 1444 1444 1443 1443 1442 1442 1441 1440 1440 1439 1438 1437 1437 1436 1435 1434 1434 1433 1432 1431 1430 1429 1428 1427 1426 1425 1424 1422 1422 1420 1419 1418 1417 1415 1414 1413
1464 1463 1462 1461 1460 1459 1458 1457 1456 1455 1454 1453 1453 1452 1452 1452 1451 1451 1450 1449 1448 1447 1447 1446 1446 1445 1445 1445 1444 1444 1444 1443 1443 1443 1442 1442 1442 1441 1440 1439 1439 1438 1437 1436 1436 1435 1434 1433 1432 1432 1431 1430 1429 1428 1427 1426 1425 1423 1422 1421 1420 1419 1417 1416 1415 1414 1413 1412 1411
1462 1461 1460 1459 1458 1457 1456 1455 1454 1453 1453 1452 1452 1451 1451 1451 1450 1449 1448 1448 1447 1446 1446 1445 1445 1444 1444 1443 1443 1443 1443 1442 1442 1442 1441 1441 1440 1439 1439 1438 1437 1436 1435 1434 1434 1433 1432 1432 1431 1430 1429 1428 1427 1426 1424 1423 1422 1421 1420 1418 1417 1416 1415 1413 1412 1411 1410 1409 1408
1461 1460 1459 1458 1457 1456 1455 1454 1453 1452 1452 1451 1451 1450 1450 1449 1449 1448 1447 1447 1446 1445 1445 1444 1444 1443 1443 1443 1442 1442 1442 1442 1441 1440 1440 1439 1438 1438 1437 1436 1435 1434 1433 1433 1432 1431 1430 1430 1429 1428 1427 1426 1424 1423 1422 1421 1420 1418 1417 1416 1415 1413 1412 1411 1410 1409 1408 1407 1406
1459 1458 1457 1457 1456 1455 1454 1453 1452 1452 1451 1450 1450 1449 1449 1448 1448 1447 1447 1446 1445 1445 1444 1444 1443 1443 1443 1442 1442 1442 1441 1440 1439 1439 1438 1437 1437 1436 1435 1435 1434 1433 1432 1431 1430 1429 1429 1428 1427 1426 1425 1424 1422 1421 1420 1418 1417 1416 1415 1413 1412 1411 1410 1409 1407 1407 1406 1405 1404
1458 1457 1456 1455 1454 1454 1453 1452 1452 1451 1450 1450 1449 1449 1448 1448 1447 1446 1446 1445 1445 1444 1444 1443 1443 1442 1442 1442 1441 1440 1439 1439 1438 1437 1436 1436 1435 1434 1434 1433 1432 1431 1431 1430 1429 1428 1427 1426 1425 1424 1423 1422 1420 1419 1418 1416 1415 1413 1412 1411 1410 1409 1407 1407 1405 1404 1403 1402 1402
1457 1456 1455 1454 1453 1453 1452 1452 1451 1450 1450 1449 1448 1448 1447 1447 1446 1446 1445 1445 1444 1444 1443 1443 1442 1442 1441 1441 1440 1439 1438 1437 1436 1436 1435 1434 1433 1432 1432 1431 1431 1430 1429 1428 1427 1426 1425 1424 1423 1422 1421 1420 1418 1417 1416 1414 1413 1411 1410 1409 1408 1407 1406 1405 1403 1402 1401 1400 1399
1455 1455 1454 1454 1453 1453 1452 1451 1451 1450 1449 1448 1447 1447 1447 1446 1446 1445 1444 1444 1443 1443 1442 1442 1441 1441 1440 1439 1438 1437 1437 1436 1435 1434 1433 1432 1432 1431 1430 1430 1429 1428 1427 1427 1426 1424 1423 1422 1422 1420 1419 1418 1417 1415 1414 1412 1411 1409 1408 1407 1406 1405 1404 1402 1401 1400 1399 1397 1397
1455 1454 1454 1453 1453 1452 1452 1451 1450 1449 1448 1447 1447 1446 1446 1445 1445 1444 1443 1443 1442 1442 1442 1441 1440 1439 1439 1438 1437 1436 1435 1434 1433 1433 1432 1431 1431 1430 1429 1428 1427 1427 1426 1425 1424 1423 1422 1421 1420 1418 1417 1416 1415 1413 1412 1411 1409 1408 1407 1406 1405 1403 1402 1400 1399 1398 1397 1396 1395